Year,Month,Day,Hour,Minute,Value (Times are PST for temperature in C)
2017,09,01,00,00,13.80
2017,09,01,00,01,13.80
2017,09,01,00,02,13.80
2017,09,01,00,03,13.80
2017,09,01,00,04,13.80
2017,09,01,00,05,13.80
2017,09,01,00,06,13.70
2017,09,01,00,07,13.70
2017,09,01,00,08,13.70
2017,09,01,00,09,13.70
2017,09,01,00,10,13.70
2017,09,01,00,11,13.80
2017,09,01,00,12,13.80
2017,09,01,00,13,13.80
2017,09,01,00,14,13.80
2017,09,01,00,15,13.80
2017,09,01,00,16,13.80
2017,09,01,00,17,13.80
2017,09,01,00,18,13.80
2017,09,01,00,19,13.80
2017,09,01,00,20,13.80
2017,09,01,00,21,13.80
2017,09,01,00,22,13.80
2017,09,01,00,23,13.80
2017,09,01,00,24,13.80
2017,09,01,00,25,13.80
2017,09,01,00,26,13.70
2017,09,01,00,27,13.70
2017,09,01,00,28,13.70
2017,09,01,00,29,13.70
2017,09,01,00,30,13.70
2017,09,01,00,31,13.70
2017,09,01,00,32,13.70
2017,09,01,00,33,13.70
2017,09,01,00,34,13.70
2017,09,01,00,35,13.70
2017,09,01,00,36,13.70
2017,09,01,00,37,13.70
2017,09,01,00,38,13.60
2017,09,01,00,39,13.60
2017,09,01,00,40,13.60
2017,09,01,00,41,13.60
2017,09,01,00,42,13.70
2017,09,01,00,43,13.70
2017,09,01,00,44,13.70
2017,09,01,00,45,13.60
2017,09,01,00,46,13.60
2017,09,01,00,47,13.60
2017,09,01,00,48,13.60
2017,09,01,00,49,13.50
2017,09,01,00,50,13.50
2017,09,01,00,51,13.50
2017,09,01,00,52,13.40
2017,09,01,00,53,13.40
2017,09,01,00,54,13.40
2017,09,01,00,55,13.50
2017,09,01,00,56,13.50
2017,09,01,00,57,13.50
2017,09,01,00,58,13.50
2017,09,01,00,59,13.50
2017,09,01,01,00,13.50
2017,09,01,01,01,13.60
2017,09,01,01,02,13.50
2017,09,01,01,03,13.50
2017,09,01,01,04,13.50
2017,09,01,01,05,13.50
2017,09,01,01,06,13.50
2017,09,01,01,07,13.40
2017,09,01,01,08,13.40
2017,09,01,01,09,13.40
2017,09,01,01,10,13.40
2017,09,01,01,11,13.40
2017,09,01,01,12,13.40
2017,09,01,01,13,13.30
2017,09,01,01,14,13.30
2017,09,01,01,15,13.30
2017,09,01,01,16,13.20
2017,09,01,01,17,13.20
2017,09,01,01,18,13.20
2017,09,01,01,19,13.20
2017,09,01,01,20,13.10
2017,09,01,01,21,13.10
2017,09,01,01,22,13.10
2017,09,01,01,23,13.10
2017,09,01,01,24,13.10
2017,09,01,01,25,13.10
2017,09,01,01,26,13.10
2017,09,01,01,27,13.00
2017,09,01,01,28,13.00
2017,09,01,01,29,12.90
2017,09,01,01,30,12.90
2017,09,01,01,31,12.90
2017,09,01,01,32,12.90
2017,09,01,01,33,12.90
2017,09,01,01,34,12.90
2017,09,01,01,35,12.80
2017,09,01,01,36,12.80
2017,09,01,01,37,12.80
2017,09,01,01,38,12.80
2017,09,01,01,39,12.80
2017,09,01,01,40,12.70
2017,09,01,01,41,12.70
2017,09,01,01,42,12.70
2017,09,01,01,43,12.70
2017,09,01,01,44,12.70
2017,09,01,01,45,12.60
2017,09,01,01,46,12.60
2017,09,01,01,47,12.50
2017,09,01,01,48,12.50
2017,09,01,01,49,12.40
2017,09,01,01,50,12.40
2017,09,01,01,51,12.30
2017,09,01,01,52,12.30
2017,09,01,01,53,12.30
2017,09,01,01,54,12.30
2017,09,01,01,55,12.30
2017,09,01,01,56,12.30
2017,09,01,01,57,12.40
2017,09,01,01,58,12.40
2017,09,01,01,59,12.40
2017,09,01,02,00,12.40
2017,09,01,02,01,12.40
2017,09,01,02,02,12.30
2017,09,01,02,03,12.30
2017,09,01,02,04,12.30
2017,09,01,02,05,12.30
2017,09,01,02,06,12.30
2017,09,01,02,07,12.30
2017,09,01,02,08,12.30
2017,09,01,02,09,12.30
2017,09,01,02,10,12.20
2017,09,01,02,11,12.20
2017,09,01,02,12,12.20
2017,09,01,02,13,12.20
2017,09,01,02,14,12.20
2017,09,01,02,15,12.20
2017,09,01,02,16,12.10
2017,09,01,02,17,12.10
2017,09,01,02,18,12.10
2017,09,01,02,19,12.00
2017,09,01,02,20,12.00
2017,09,01,02,21,11.90
2017,09,01,02,22,11.90
2017,09,01,02,23,11.90
2017,09,01,02,24,11.90
2017,09,01,02,25,11.90
2017,09,01,02,26,11.90
2017,09,01,02,27,11.90
2017,09,01,02,28,11.90
2017,09,01,02,29,11.90
2017,09,01,02,30,11.80
2017,09,01,02,31,11.80
2017,09,01,02,32,11.80
2017,09,01,02,33,11.80
2017,09,01,02,34,11.80
2017,09,01,02,35,11.70
2017,09,01,02,36,11.70
2017,09,01,02,37,11.70
2017,09,01,02,38,11.70
2017,09,01,02,39,11.60
2017,09,01,02,40,11.60
2017,09,01,02,41,11.60
2017,09,01,02,42,11.60
2017,09,01,02,43,11.60
2017,09,01,02,44,11.60
2017,09,01,02,45,11.50
2017,09,01,02,46,11.50
2017,09,01,02,47,11.40
2017,09,01,02,48,11.40
2017,09,01,02,49,11.30
2017,09,01,02,50,11.30
2017,09,01,02,51,11.30
2017,09,01,02,52,11.20
2017,09,01,02,53,11.20
2017,09,01,02,54,11.20
2017,09,01,02,55,11.10
2017,09,01,02,56,11.10
2017,09,01,02,57,11.10
2017,09,01,02,58,11.00
2017,09,01,02,59,11.00
2017,09,01,03,00,10.90
2017,09,01,03,01,10.90
2017,09,01,03,02,10.90
2017,09,01,03,03,10.90
2017,09,01,03,04,10.80
2017,09,01,03,05,10.80
2017,09,01,03,06,10.80
2017,09,01,03,07,10.80
2017,09,01,03,08,10.80
2017,09,01,03,09,10.80
2017,09,01,03,10,10.80
2017,09,01,03,11,10.80
2017,09,01,03,12,10.80
2017,09,01,03,13,10.80
2017,09,01,03,14,10.80
2017,09,01,03,15,10.80
2017,09,01,03,16,10.80
2017,09,01,03,17,10.80
2017,09,01,03,18,10.80
2017,09,01,03,19,10.80
2017,09,01,03,20,10.80
2017,09,01,03,21,10.70
2017,09,01,03,22,10.70
2017,09,01,03,23,10.70
2017,09,01,03,24,10.70
2017,09,01,03,25,10.70
2017,09,01,03,26,10.70
2017,09,01,03,27,10.70
2017,09,01,03,28,10.60
2017,09,01,03,29,10.60
2017,09,01,03,30,10.60
2017,09,01,03,31,10.60
2017,09,01,03,32,10.60
2017,09,01,03,33,10.50
2017,09,01,03,34,10.50
2017,09,01,03,35,10.50
2017,09,01,03,36,10.50
2017,09,01,03,37,10.50
2017,09,01,03,38,10.50
2017,09,01,03,39,10.50
2017,09,01,03,40,10.40
2017,09,01,03,41,10.40
2017,09,01,03,42,10.40
2017,09,01,03,43,10.40
2017,09,01,03,44,10.40
2017,09,01,03,45,10.40
2017,09,01,03,46,10.30
2017,09,01,03,47,10.30
2017,09,01,03,48,10.30
2017,09,01,03,49,10.30
2017,09,01,03,50,10.30
2017,09,01,03,51,10.30
2017,09,01,03,52,10.30
2017,09,01,03,53,10.30
2017,09,01,03,54,10.30
2017,09,01,03,55,10.30
2017,09,01,03,56,10.30
2017,09,01,03,57,10.30
2017,09,01,03,58,10.30
2017,09,01,03,59,10.30
2017,09,01,04,00,10.30
2017,09,01,04,01,10.30
2017,09,01,04,02,10.30
2017,09,01,04,03,10.30
2017,09,01,04,04,10.30
2017,09,01,04,05,10.30
2017,09,01,04,06,10.20
2017,09,01,04,07,10.20
2017,09,01,04,08,10.20
2017,09,01,04,09,10.20
2017,09,01,04,10,10.20
2017,09,01,04,11,10.20
2017,09,01,04,12,10.20
2017,09,01,04,13,10.20
2017,09,01,04,14,10.20
2017,09,01,04,15,10.20
2017,09,01,04,16,10.20
2017,09,01,04,17,10.20
2017,09,01,04,18,10.20
2017,09,01,04,19,10.20
2017,09,01,04,20,10.20
2017,09,01,04,21,10.20
2017,09,01,04,22,10.20
2017,09,01,04,23,10.20
2017,09,01,04,24,10.20
2017,09,01,04,25,10.20
2017,09,01,04,26,10.10
2017,09,01,04,27,10.10
2017,09,01,04,28,10.10
2017,09,01,04,29,10.10
2017,09,01,04,30,10.10
2017,09,01,04,31,10.10
2017,09,01,04,32,10.10
2017,09,01,04,33,10.10
2017,09,01,04,34,10.00
2017,09,01,04,35,10.00
2017,09,01,04,36,10.00
2017,09,01,04,37,10.00
2017,09,01,04,38,9.90
2017,09,01,04,39,9.90
2017,09,01,04,40,9.90
2017,09,01,04,41,9.90
2017,09,01,04,42,9.90
2017,09,01,04,43,9.90
2017,09,01,04,44,9.90
2017,09,01,04,45,9.90
2017,09,01,04,46,9.90
2017,09,01,04,47,9.90
2017,09,01,04,48,9.90
2017,09,01,04,49,9.90
2017,09,01,04,50,9.90
2017,09,01,04,51,9.90
2017,09,01,04,52,9.90
2017,09,01,04,53,9.90
2017,09,01,04,54,9.80
2017,09,01,04,55,9.80
2017,09,01,04,56,9.80
2017,09,01,04,57,9.80
2017,09,01,04,58,9.80
2017,09,01,04,59,9.80
2017,09,01,05,00,9.80
2017,09,01,05,01,9.70
2017,09,01,05,02,9.70
2017,09,01,05,03,9.70
2017,09,01,05,04,9.70
2017,09,01,05,05,9.70
2017,09,01,05,06,9.70
2017,09,01,05,07,9.70
2017,09,01,05,08,9.70
2017,09,01,05,09,9.70
2017,09,01,05,10,9.70
2017,09,01,05,11,9.70
2017,09,01,05,12,9.70
2017,09,01,05,13,9.70
2017,09,01,05,14,9.70
2017,09,01,05,15,9.70
2017,09,01,05,16,9.70
2017,09,01,05,17,9.70
2017,09,01,05,18,9.70
2017,09,01,05,19,9.70
2017,09,01,05,20,9.70
2017,09,01,05,21,9.70
2017,09,01,05,22,9.70
2017,09,01,05,23,9.70
2017,09,01,05,24,9.70
2017,09,01,05,25,9.70
2017,09,01,05,26,9.70
2017,09,01,05,27,9.70
2017,09,01,05,28,9.70
2017,09,01,05,29,9.70
2017,09,01,05,30,9.70
2017,09,01,05,31,9.70
2017,09,01,05,32,9.60
2017,09,01,05,33,9.60
2017,09,01,05,34,9.60
2017,09,01,05,35,9.60
2017,09,01,05,36,9.60
2017,09,01,05,37,9.60
2017,09,01,05,38,9.60
2017,09,01,05,39,9.60
2017,09,01,05,40,9.60
2017,09,01,05,41,9.60
2017,09,01,05,42,9.60
2017,09,01,05,43,9.60
2017,09,01,05,44,9.60
2017,09,01,05,45,9.50
2017,09,01,05,46,9.50
2017,09,01,05,47,9.50
2017,09,01,05,48,9.50
2017,09,01,05,49,9.40
2017,09,01,05,50,9.40
2017,09,01,05,51,9.40
2017,09,01,05,52,9.40
2017,09,01,05,53,9.30
2017,09,01,05,54,9.30
2017,09,01,05,55,9.30
2017,09,01,05,56,9.30
2017,09,01,05,57,9.30
2017,09,01,05,58,9.30
2017,09,01,05,59,9.30
2017,09,01,06,00,9.30
2017,09,01,06,01,9.30
2017,09,01,06,02,9.30
2017,09,01,06,03,9.30
2017,09,01,06,04,9.30
2017,09,01,06,05,9.30
2017,09,01,06,06,9.30
2017,09,01,06,07,9.30
2017,09,01,06,08,9.30
2017,09,01,06,09,9.30
2017,09,01,06,10,9.30
2017,09,01,06,11,9.30
2017,09,01,06,12,9.30
2017,09,01,06,13,9.30
2017,09,01,06,14,9.30
2017,09,01,06,15,9.30
2017,09,01,06,16,9.30
2017,09,01,06,17,9.30
2017,09,01,06,18,9.30
2017,09,01,06,19,9.30
2017,09,01,06,20,9.30
2017,09,01,06,21,9.30
2017,09,01,06,22,9.20
2017,09,01,06,23,9.20
2017,09,01,06,24,9.20
2017,09,01,06,25,9.20
2017,09,01,06,26,9.20
2017,09,01,06,27,9.20
2017,09,01,06,28,9.30
2017,09,01,06,29,9.30
2017,09,01,06,30,9.30
2017,09,01,06,31,9.30
2017,09,01,06,32,9.30
2017,09,01,06,33,9.30
2017,09,01,06,34,9.30
2017,09,01,06,35,9.30
2017,09,01,06,36,9.30
2017,09,01,06,37,9.30
2017,09,01,06,38,9.30
2017,09,01,06,39,9.30
2017,09,01,06,40,9.20
2017,09,01,06,41,9.20
2017,09,01,06,42,9.20
2017,09,01,06,43,9.20
2017,09,01,06,44,9.20
2017,09,01,06,45,9.20
2017,09,01,06,46,9.20
2017,09,01,06,47,9.20
2017,09,01,06,48,9.20
2017,09,01,06,49,9.20
2017,09,01,06,50,9.20
2017,09,01,06,51,9.20
2017,09,01,06,52,9.20
2017,09,01,06,53,9.20
2017,09,01,06,54,9.20
2017,09,01,06,55,9.20
2017,09,01,06,56,9.20
2017,09,01,06,57,9.20
2017,09,01,06,58,9.20
2017,09,01,06,59,9.20
2017,09,01,07,00,9.30
2017,09,01,07,01,9.30
2017,09,01,07,02,9.30
2017,09,01,07,03,9.30
2017,09,01,07,04,9.20
2017,09,01,07,05,9.20
2017,09,01,07,06,9.20
2017,09,01,07,07,9.20
2017,09,01,07,08,9.20
2017,09,01,07,09,9.20
2017,09,01,07,10,9.20
2017,09,01,07,11,9.20
2017,09,01,07,12,9.30
2017,09,01,07,13,9.30
2017,09,01,07,14,9.30
2017,09,01,07,15,9.30
2017,09,01,07,16,9.30
2017,09,01,07,17,9.30
2017,09,01,07,18,9.30
2017,09,01,07,19,9.40
2017,09,01,07,20,9.40
2017,09,01,07,21,9.40
2017,09,01,07,22,9.40
2017,09,01,07,23,9.50
2017,09,01,07,24,9.50
2017,09,01,07,25,9.60
2017,09,01,07,26,9.60
2017,09,01,07,27,9.60
2017,09,01,07,28,9.60
2017,09,01,07,29,9.70
2017,09,01,07,30,9.70
2017,09,01,07,31,9.70
2017,09,01,07,32,9.70
2017,09,01,07,33,9.80
2017,09,01,07,34,9.80
2017,09,01,07,35,9.80
2017,09,01,07,36,9.80
2017,09,01,07,37,9.90
2017,09,01,07,38,9.90
2017,09,01,07,39,9.90
2017,09,01,07,40,10.00
2017,09,01,07,41,10.00
2017,09,01,07,42,10.10
2017,09,01,07,43,10.10
2017,09,01,07,44,10.10
2017,09,01,07,45,10.20
2017,09,01,07,46,10.20
2017,09,01,07,47,10.30
2017,09,01,07,48,10.30
2017,09,01,07,49,10.40
2017,09,01,07,50,10.40
2017,09,01,07,51,10.50
2017,09,01,07,52,10.50
2017,09,01,07,53,10.60
2017,09,01,07,54,10.70
2017,09,01,07,55,10.80
2017,09,01,07,56,10.90
2017,09,01,07,57,11.00
2017,09,01,07,58,11.20
2017,09,01,07,59,11.30
2017,09,01,08,00,11.40
2017,09,01,08,01,11.60
2017,09,01,08,02,11.70
2017,09,01,08,03,11.80
2017,09,01,08,04,11.80
2017,09,01,08,05,11.90
2017,09,01,08,06,12.00
2017,09,01,08,07,12.10
2017,09,01,08,08,12.20
2017,09,01,08,09,12.30
2017,09,01,08,10,12.30
2017,09,01,08,11,12.40
2017,09,01,08,12,12.40
2017,09,01,08,13,12.50
2017,09,01,08,14,12.60
2017,09,01,08,15,12.80
2017,09,01,08,16,12.90
2017,09,01,08,17,13.00
2017,09,01,08,18,13.10
2017,09,01,08,19,13.30
2017,09,01,08,20,13.30
2017,09,01,08,21,13.50
2017,09,01,08,22,13.50
2017,09,01,08,23,13.60
2017,09,01,08,24,13.70
2017,09,01,08,25,13.80
2017,09,01,08,26,13.90
2017,09,01,08,27,13.90
2017,09,01,08,28,14.00
2017,09,01,08,29,14.10
2017,09,01,08,30,14.10
2017,09,01,08,31,14.20
2017,09,01,08,32,14.20
2017,09,01,08,33,14.30
2017,09,01,08,34,14.30
2017,09,01,08,35,14.40
2017,09,01,08,36,14.40
2017,09,01,08,37,14.50
2017,09,01,08,38,14.50
2017,09,01,08,39,14.60
2017,09,01,08,40,14.60
2017,09,01,08,41,14.70
2017,09,01,08,42,14.80
2017,09,01,08,43,14.80
2017,09,01,08,44,14.90
2017,09,01,08,45,15.00
2017,09,01,08,46,15.10
2017,09,01,08,47,15.20
2017,09,01,08,48,15.30
2017,09,01,08,49,15.30
2017,09,01,08,50,15.40
2017,09,01,08,51,15.60
2017,09,01,08,52,15.70
2017,09,01,08,53,15.80
2017,09,01,08,54,15.90
2017,09,01,08,55,16.00
2017,09,01,08,56,16.20
2017,09,01,08,57,16.30
2017,09,01,08,58,16.40
2017,09,01,08,59,16.50
2017,09,01,09,00,16.60
2017,09,01,09,01,16.80
2017,09,01,09,02,16.80
2017,09,01,09,03,17.00
2017,09,01,09,04,17.00
2017,09,01,09,05,17.10
2017,09,01,09,06,17.10
2017,09,01,09,07,17.20
2017,09,01,09,08,17.20
2017,09,01,09,09,17.20
2017,09,01,09,10,17.20
2017,09,01,09,11,17.20
2017,09,01,09,12,17.20
2017,09,01,09,13,17.10
2017,09,01,09,14,17.10
2017,09,01,09,15,17.10
2017,09,01,09,16,17.10
2017,09,01,09,17,17.00
2017,09,01,09,18,17.00
2017,09,01,09,19,16.90
2017,09,01,09,20,16.90
2017,09,01,09,21,16.90
2017,09,01,09,22,16.90
2017,09,01,09,23,16.80
2017,09,01,09,24,16.80
2017,09,01,09,25,16.80
2017,09,01,09,26,16.80
2017,09,01,09,27,16.70
2017,09,01,09,28,16.70
2017,09,01,09,29,16.70
2017,09,01,09,30,16.70
2017,09,01,09,31,16.80
2017,09,01,09,32,16.80
2017,09,01,09,33,16.80
2017,09,01,09,34,16.80
2017,09,01,09,35,16.80
2017,09,01,09,36,16.80
2017,09,01,09,37,16.70
2017,09,01,09,38,16.70
2017,09,01,09,39,16.70
2017,09,01,09,40,16.70
2017,09,01,09,41,16.70
2017,09,01,09,42,16.70
2017,09,01,09,43,16.70
2017,09,01,09,44,16.70
2017,09,01,09,45,16.70
2017,09,01,09,46,16.70
2017,09,01,09,47,16.70
2017,09,01,09,48,16.70
2017,09,01,09,49,16.70
2017,09,01,09,50,16.70
2017,09,01,09,51,16.70
2017,09,01,09,52,16.70
2017,09,01,09,53,16.70
2017,09,01,09,54,16.70
2017,09,01,09,55,16.70
2017,09,01,09,56,16.70
2017,09,01,09,57,16.70
2017,09,01,09,58,16.70
2017,09,01,09,59,16.80
2017,09,01,10,00,16.80
2017,09,01,10,01,16.80
2017,09,01,10,02,16.90
2017,09,01,10,03,16.90
2017,09,01,10,04,17.00
2017,09,01,10,05,17.10
2017,09,01,10,06,17.10
2017,09,01,10,07,17.20
2017,09,01,10,08,17.20
2017,09,01,10,09,17.30
2017,09,01,10,10,17.30
2017,09,01,10,11,17.30
2017,09,01,10,12,17.30
2017,09,01,10,13,17.30
2017,09,01,10,14,17.30
2017,09,01,10,15,17.30
2017,09,01,10,16,17.30
2017,09,01,10,17,17.30
2017,09,01,10,18,17.30
2017,09,01,10,19,17.30
2017,09,01,10,20,17.20
2017,09,01,10,21,17.10
2017,09,01,10,22,17.00
2017,09,01,10,23,16.90
2017,09,01,10,24,16.80
2017,09,01,10,25,16.80
2017,09,01,10,26,16.80
2017,09,01,10,27,16.80
2017,09,01,10,28,16.80
2017,09,01,10,29,16.90
2017,09,01,10,30,17.00
2017,09,01,10,31,17.00
2017,09,01,10,32,17.10
2017,09,01,10,33,17.10
2017,09,01,10,34,17.20
2017,09,01,10,35,17.20
2017,09,01,10,36,17.30
2017,09,01,10,37,17.30
2017,09,01,10,38,17.30
2017,09,01,10,39,17.30
2017,09,01,10,40,17.40
2017,09,01,10,41,17.40
2017,09,01,10,42,17.40
2017,09,01,10,43,17.40
2017,09,01,10,44,17.50
2017,09,01,10,45,17.60
2017,09,01,10,46,17.60
2017,09,01,10,47,17.70
2017,09,01,10,48,17.80
2017,09,01,10,49,17.90
2017,09,01,10,50,18.00
2017,09,01,10,51,18.10
2017,09,01,10,52,18.20
2017,09,01,10,53,18.30
2017,09,01,10,54,18.40
2017,09,01,10,55,18.50
2017,09,01,10,56,18.60
2017,09,01,10,57,18.70
2017,09,01,10,58,18.80
2017,09,01,10,59,18.80
2017,09,01,11,00,18.80
2017,09,01,11,01,18.80
2017,09,01,11,02,18.90
2017,09,01,11,03,18.90
2017,09,01,11,04,18.90
2017,09,01,11,05,19.00
2017,09,01,11,06,19.00
2017,09,01,11,07,18.90
2017,09,01,11,08,18.90
2017,09,01,11,09,19.00
2017,09,01,11,10,19.00
2017,09,01,11,11,19.10
2017,09,01,11,12,19.10
2017,09,01,11,13,19.20
2017,09,01,11,14,19.20
2017,09,01,11,15,19.30
2017,09,01,11,16,19.30
2017,09,01,11,17,19.40
2017,09,01,11,18,19.50
2017,09,01,11,19,19.50
2017,09,01,11,20,19.60
2017,09,01,11,21,19.60
2017,09,01,11,22,19.60
2017,09,01,11,23,19.60
2017,09,01,11,24,19.60
2017,09,01,11,25,19.60
2017,09,01,11,26,19.60
2017,09,01,11,27,19.60
2017,09,01,11,28,19.70
2017,09,01,11,29,19.60
2017,09,01,11,30,19.60
2017,09,01,11,31,19.70
2017,09,01,11,32,19.70
2017,09,01,11,33,19.80
2017,09,01,11,34,19.80
2017,09,01,11,35,19.80
2017,09,01,11,36,19.90
2017,09,01,11,37,19.90
2017,09,01,11,38,20.00
2017,09,01,11,39,20.00
2017,09,01,11,40,20.00
2017,09,01,11,41,20.00
2017,09,01,11,42,19.90
2017,09,01,11,43,19.90
2017,09,01,11,44,19.90
2017,09,01,11,45,19.90
2017,09,01,11,46,19.90
2017,09,01,11,47,19.80
2017,09,01,11,48,19.60
2017,09,01,11,49,19.50
2017,09,01,11,50,19.40
2017,09,01,11,51,19.30
2017,09,01,11,52,19.20
2017,09,01,11,53,19.00
2017,09,01,11,54,18.90
2017,09,01,11,55,18.80
2017,09,01,11,56,18.80
2017,09,01,11,57,18.80
2017,09,01,11,58,18.80
2017,09,01,11,59,18.80
2017,09,01,12,00,18.70
2017,09,01,12,01,18.70
2017,09,01,12,02,18.70
2017,09,01,12,03,18.80
2017,09,01,12,04,18.80
2017,09,01,12,05,18.80
2017,09,01,12,06,18.90
2017,09,01,12,07,19.00
2017,09,01,12,08,19.10
2017,09,01,12,09,19.10
2017,09,01,12,10,19.20
2017,09,01,12,11,19.20
2017,09,01,12,12,19.20
2017,09,01,12,13,19.20
2017,09,01,12,14,19.20
2017,09,01,12,15,19.10
2017,09,01,12,16,19.10
2017,09,01,12,17,19.00
2017,09,01,12,18,19.00
2017,09,01,12,19,19.00
2017,09,01,12,20,19.00
2017,09,01,12,21,19.00
2017,09,01,12,22,19.00
2017,09,01,12,23,19.00
2017,09,01,12,24,19.10
2017,09,01,12,25,19.10
2017,09,01,12,26,19.20
2017,09,01,12,27,19.20
2017,09,01,12,28,19.30
2017,09,01,12,29,19.30
2017,09,01,12,30,19.20
2017,09,01,12,31,19.30
2017,09,01,12,32,19.30
2017,09,01,12,33,19.40
2017,09,01,12,34,19.40
2017,09,01,12,35,19.40
2017,09,01,12,36,19.50
2017,09,01,12,37,19.50
2017,09,01,12,38,19.60
2017,09,01,12,39,19.70
2017,09,01,12,40,19.70
2017,09,01,12,41,19.80
2017,09,01,12,42,19.90
2017,09,01,12,43,20.00
2017,09,01,12,44,20.10
2017,09,01,12,45,20.10
2017,09,01,12,46,20.10
2017,09,01,12,47,20.10
2017,09,01,12,48,20.00
2017,09,01,12,49,20.00
2017,09,01,12,50,20.00
2017,09,01,12,51,19.90
2017,09,01,12,52,19.90
2017,09,01,12,53,19.80
2017,09,01,12,54,19.80
2017,09,01,12,55,19.80
2017,09,01,12,56,19.80
2017,09,01,12,57,19.80
2017,09,01,12,58,19.80
2017,09,01,12,59,19.80
2017,09,01,13,00,19.80
2017,09,01,13,01,19.70
2017,09,01,13,02,19.60
2017,09,01,13,03,19.60
2017,09,01,13,04,19.60
2017,09,01,13,05,19.70
2017,09,01,13,06,19.70
2017,09,01,13,07,19.70
2017,09,01,13,08,19.80
2017,09,01,13,09,19.80
2017,09,01,13,10,19.70
2017,09,01,13,11,19.70
2017,09,01,13,12,19.70
2017,09,01,13,13,19.70
2017,09,01,13,14,19.60
2017,09,01,13,15,19.60
2017,09,01,13,16,19.60
2017,09,01,13,17,19.70
2017,09,01,13,18,19.70
2017,09,01,13,19,19.80
2017,09,01,13,20,19.80
2017,09,01,13,21,19.90
2017,09,01,13,22,19.90
2017,09,01,13,23,19.90
2017,09,01,13,24,19.90
2017,09,01,13,25,19.90
2017,09,01,13,26,19.90
2017,09,01,13,27,19.90
2017,09,01,13,28,19.90
2017,09,01,13,29,20.00
2017,09,01,13,30,20.00
2017,09,01,13,31,20.10
2017,09,01,13,32,20.10
2017,09,01,13,33,20.10
2017,09,01,13,34,20.20
2017,09,01,13,35,20.20
2017,09,01,13,36,20.20
2017,09,01,13,37,20.20
2017,09,01,13,38,20.20
2017,09,01,13,39,20.30
2017,09,01,13,40,20.40
2017,09,01,13,41,20.50
2017,09,01,13,42,20.60
2017,09,01,13,43,20.70
2017,09,01,13,44,20.80
2017,09,01,13,45,20.90
2017,09,01,13,46,21.00
2017,09,01,13,47,21.10
2017,09,01,13,48,21.10
2017,09,01,13,49,21.10
2017,09,01,13,50,20.90
2017,09,01,13,51,20.80
2017,09,01,13,52,20.70
2017,09,01,13,53,20.50
2017,09,01,13,54,20.40
2017,09,01,13,55,20.40
2017,09,01,13,56,20.40
2017,09,01,13,57,20.40
2017,09,01,13,58,20.40
2017,09,01,13,59,20.50
2017,09,01,14,00,20.50
2017,09,01,14,01,20.50
2017,09,01,14,02,20.40
2017,09,01,14,03,20.40
2017,09,01,14,04,20.30
2017,09,01,14,05,20.30
2017,09,01,14,06,20.40
2017,09,01,14,07,20.40
2017,09,01,14,08,20.40
2017,09,01,14,09,20.50
2017,09,01,14,10,20.50
2017,09,01,14,11,20.60
2017,09,01,14,12,20.60
2017,09,01,14,13,20.70
2017,09,01,14,14,20.70
2017,09,01,14,15,20.80
2017,09,01,14,16,20.70
2017,09,01,14,17,20.70
2017,09,01,14,18,20.70
2017,09,01,14,19,20.70
2017,09,01,14,20,20.60
2017,09,01,14,21,20.60
2017,09,01,14,22,20.60
2017,09,01,14,23,20.60
2017,09,01,14,24,20.60
2017,09,01,14,25,20.60
2017,09,01,14,26,20.60
2017,09,01,14,27,20.70
2017,09,01,14,28,20.70
2017,09,01,14,29,20.70
2017,09,01,14,30,20.80
2017,09,01,14,31,20.80
2017,09,01,14,32,20.90
2017,09,01,14,33,20.90
2017,09,01,14,34,21.00
2017,09,01,14,35,21.10
2017,09,01,14,36,21.10
2017,09,01,14,37,21.20
2017,09,01,14,38,21.30
2017,09,01,14,39,21.30
2017,09,01,14,40,21.50
2017,09,01,14,41,21.60
2017,09,01,14,42,21.60
2017,09,01,14,43,21.70
2017,09,01,14,44,21.70
2017,09,01,14,45,21.70
2017,09,01,14,46,21.70
2017,09,01,14,47,21.70
2017,09,01,14,48,21.60
2017,09,01,14,49,21.60
2017,09,01,14,50,21.60
2017,09,01,14,51,21.60
2017,09,01,14,52,21.50
2017,09,01,14,53,21.50
2017,09,01,14,54,21.50
2017,09,01,14,55,21.40
2017,09,01,14,56,21.40
2017,09,01,14,57,21.30
2017,09,01,14,58,21.30
2017,09,01,14,59,21.20
2017,09,01,15,00,21.10
2017,09,01,15,01,21.10
2017,09,01,15,02,21.00
2017,09,01,15,03,20.90
2017,09,01,15,04,20.90
2017,09,01,15,05,20.80
2017,09,01,15,06,20.80
2017,09,01,15,07,20.70
2017,09,01,15,08,20.70
2017,09,01,15,09,20.80
2017,09,01,15,10,20.80
2017,09,01,15,11,20.90
2017,09,01,15,12,21.00
2017,09,01,15,13,21.10
2017,09,01,15,14,21.10
2017,09,01,15,15,21.10
2017,09,01,15,16,21.10
2017,09,01,15,17,21.10
2017,09,01,15,18,21.20
2017,09,01,15,19,21.20
2017,09,01,15,20,21.30
2017,09,01,15,21,21.40
2017,09,01,15,22,21.50
2017,09,01,15,23,21.70
2017,09,01,15,24,21.80
2017,09,01,15,25,21.90
2017,09,01,15,26,21.90
2017,09,01,15,27,21.90
2017,09,01,15,28,22.00
2017,09,01,15,29,22.00
2017,09,01,15,30,22.00
2017,09,01,15,31,21.90
2017,09,01,15,32,21.90
2017,09,01,15,33,21.90
2017,09,01,15,34,21.80
2017,09,01,15,35,21.80
2017,09,01,15,36,21.90
2017,09,01,15,37,21.90
2017,09,01,15,38,22.00
2017,09,01,15,39,22.00
2017,09,01,15,40,22.10
2017,09,01,15,41,22.20
2017,09,01,15,42,22.20
2017,09,01,15,43,22.20
2017,09,01,15,44,22.20
2017,09,01,15,45,22.10
2017,09,01,15,46,22.10
2017,09,01,15,47,22.00
2017,09,01,15,48,21.90
2017,09,01,15,49,21.80
2017,09,01,15,50,21.80
2017,09,01,15,51,21.70
2017,09,01,15,52,21.60
2017,09,01,15,53,21.60
2017,09,01,15,54,21.50
2017,09,01,15,55,21.50
2017,09,01,15,56,21.40
2017,09,01,15,57,21.50
2017,09,01,15,58,21.50
2017,09,01,15,59,21.60
2017,09,01,16,00,21.60
2017,09,01,16,01,21.70
2017,09,01,16,02,21.80
2017,09,01,16,03,21.90
2017,09,01,16,04,22.00
2017,09,01,16,05,22.00
2017,09,01,16,06,22.10
2017,09,01,16,07,22.10
2017,09,01,16,08,22.20
2017,09,01,16,09,22.30
2017,09,01,16,10,22.40
2017,09,01,16,11,22.50
2017,09,01,16,12,22.60
2017,09,01,16,13,22.70
2017,09,01,16,14,22.70
2017,09,01,16,15,22.80
2017,09,01,16,16,22.80
2017,09,01,16,17,22.80
2017,09,01,16,18,22.80
2017,09,01,16,19,22.80
2017,09,01,16,20,22.80
2017,09,01,16,21,22.90
2017,09,01,16,22,22.80
2017,09,01,16,23,22.80
2017,09,01,16,24,22.80
2017,09,01,16,25,22.70
2017,09,01,16,26,22.70
2017,09,01,16,27,22.60
2017,09,01,16,28,22.50
2017,09,01,16,29,22.50
2017,09,01,16,30,22.50
2017,09,01,16,31,22.50
2017,09,01,16,32,22.50
2017,09,01,16,33,22.50
2017,09,01,16,34,22.50
2017,09,01,16,35,22.60
2017,09,01,16,36,22.60
2017,09,01,16,37,22.60
2017,09,01,16,38,22.60
2017,09,01,16,39,22.50
2017,09,01,16,40,22.50
2017,09,01,16,41,22.40
2017,09,01,16,42,22.40
2017,09,01,16,43,22.30
2017,09,01,16,44,22.30
2017,09,01,16,45,22.30
2017,09,01,16,46,22.20
2017,09,01,16,47,22.20
2017,09,01,16,48,22.20
2017,09,01,16,49,22.20
2017,09,01,16,50,22.20
2017,09,01,16,51,22.20
2017,09,01,16,52,22.20
2017,09,01,16,53,22.20
2017,09,01,16,54,22.20
2017,09,01,16,55,22.20
2017,09,01,16,56,22.30
2017,09,01,16,57,22.30
2017,09,01,16,58,22.30
2017,09,01,16,59,22.40
2017,09,01,17,00,22.40
2017,09,01,17,01,22.50
2017,09,01,17,02,22.50
2017,09,01,17,03,22.50
2017,09,01,17,04,22.50
2017,09,01,17,05,22.50
2017,09,01,17,06,22.50
2017,09,01,17,07,22.50
2017,09,01,17,08,22.50
2017,09,01,17,09,22.50
2017,09,01,17,10,22.60
2017,09,01,17,11,22.60
2017,09,01,17,12,22.60
2017,09,01,17,13,22.60
2017,09,01,17,14,22.70
2017,09,01,17,15,22.70
2017,09,01,17,16,22.70
2017,09,01,17,17,22.80
2017,09,01,17,18,22.80
2017,09,01,17,19,22.80
2017,09,01,17,20,22.80
2017,09,01,17,21,22.80
2017,09,01,17,22,22.80
2017,09,01,17,23,22.80
2017,09,01,17,24,22.80
2017,09,01,17,25,22.80
2017,09,01,17,26,22.70
2017,09,01,17,27,22.60